Location: Elbart
(49.6135°N, 11.9134°E)
Time: 01:35:25
(UTC+00:00)

Cosmos 1726 - Pass Details

Date: 09 April 2020
Orbit: 482 x 500 km, 82.5° (Epoch: 03 June)

Event Time Altitude Azimuth Distance (km) Brightness Sun altitude
Rises 19:01:43 0° 209° (SSW) 2,583 5.8 -10.7°
Reaches altitude 10° 19:03:57 10° 219° (SW) 1,704 5.0 -11.0°
Maximum altitude 19:07:24 35° 286° (WNW) 827 4.0 -11.5°
Drops below altitude 10° 19:10:52 10° 354° (N) 1,712 5.3 -12.0°
Sets 19:13:08 0° 3° (N) 2,598 6.1 -12.3°
